Погода в Эль-Гайда

Йемен     16°12′36″N   52°10′57″E
темп.,
°C
ветер,
м/с
пор.,
м/с
влажн.,
%
обл.,
%
осадки,
мм/ч
давл.,
гПа
погр.,
м
15 мая, сб
сб1500:00+29всв448231 0.0 1004314
03:00+28ссв228460 0.0 1003113
06:00+28зсз11795 0.0 100592
09:00+32ююв11520 0.0 1005396
12:00+33юв64547 0.0 1003427
15:00+32юв77664 0.0 1001367
18:00+30юв677522 0.0 1002219
21:00+29всв55815 0.0 1004206
16 мая, вс
вс1600:00+29ссв34832 0.0 1003174
03:00+28сз11670 0.0 100222
06:00+30зюз12520 0.0 100414
09:00+34юв22381 0.0 1005332
12:00+34юв54419 0.0 1003393
15:00+34ююв55476 0.0 1001317
18:00+31юв56753 0.0 1001172
21:00+29всв56845 0.0 1004223
17 мая, пн
пн1700:00+29всв56887 0.0 1004382
03:00+28всв238841 0.0 1004173
06:00+28ссв118940 0.0 1006147
09:00+31вюв326612 0.0 1006447
12:00+33юв44593 0.0 1004400
15:00+33юв556299 0.0 1002394
18:00+30вюв4578100 0.0 1002221
21:00+29в56865 0.0 1004297
18 мая, вт
вт1800:00+28всв45886 0.0 1004340
03:00+27с228888 0.0 1003107
06:00+28з227358 0.0 100476
09:00+32юв325492 0.0 1005409
12:00+32ююв546555 0.0 1003392
15:00+33юв666010 0.0 1000288
18:00+31вюв457479 0.0 1001186
21:00+29св568390 0.0 1002208
19 мая, ср
ср1900:00+28св4687100 0.0 1002225
03:00+28с3490100 0.0 1002152
06:00+29ссз1276100 0.0 100390
09:00+32вюв3361100 0.0 1003415
12:00+33в5557100 0.0 1002509
15:00+31юв66685 0.0 1001614
18:00+30вюв6680100 0.0 1002422
21:00+29вюв5685100 0.0 1004437